{"data":{"norad_id":60200,"intl_designator":"2024-124T","name":"STARLINK-32002","alt_names":[],"object_type":"PAYLOAD","status":"ACTIVE","operator":null,"country":"US","launch_date":"2024-07-03","launch_site_code":"AFETR","launch_vehicle":null,"mission":null,"orbit_class":"UNKNOWN","rcs_meters":null,"size_class":null,"mass_kg":null,"dimensions":null,"purposes":["comms"],"wikipedia_slug":null,"has_3d_model":false,"image_url":null,"decayed_at":null,"tle_current":{"epoch":"2026-09-21T20:58:02.502048Z","epoch_age_seconds":62907,"freshness":"FRESH","line1":"1 60200U 24124T   26264.87364007 -.00005585  00000+0 -16820-3 0  9990","line2":"2 60200  53.1579 129.7354 0000991  70.8166 289.2942 15.31725732124355","mean_motion":15.31725732,"eccentricity":9.91e-5,"inclination_deg":53.1579,"raan_deg":129.7354,"arg_perigee_deg":70.8166,"mean_anomaly_deg":289.2942,"bstar":-0.0001682,"rev_number":12435,"period_min":94.011608600436,"perigee_km":469.98457443768,"apogee_km":471.34200665527,"semimajor_km":6848.8002905465,"source":"CELESTRAK","updated_at":"2026-09-22T09:00:49.185176Z"}}}